Regional Weather Roundup
Issued by NWS

Current Version |  Previous Version |  Text Only |  Print | Product List |  Glossary On
Versions: 1 2 3 4 5 6 7 8 9 10 11 12 13 14 15 16 17 18 19 20 21 22 23 24 25 26 27 28 29 30 31 32 33 34 35 36 37 38 39 40 41 42 43 44 45 46 47 48 49 50
351
ASUS43 KMKX 261359
RWRWI

WISCONSIN REGIONAL WEATHER ROUNDUP
NATIONAL WEATHER SERVICE MILWAUKEE/SULLIVAN WI
900 AM CDT SUN MAY 26 2024

NOTE: "FAIR" INDICATES FEW OR NO CLOUDS BELOW 12,000 FEET WITH NO
SIGNIFICANT WEATHER AND/OR OBSTRUCTIONS TO VISIBILITY.

WIZ001-002-006>008-014>016-023>028-261500-
NORTHWEST WISCONSIN

CITY           SKY/WX    TMP DP  RH WIND       PRES   REMARKS
SUPERIOR ARPT  PTSUNNY   54  50  87 N3        29.76S TC  12
ASHLAND        PTSUNNY   61  54  77 E3        29.78R TC  16
HAYWARD        CLOUDY    61  52  72 E6        29.76R TC  16
SIREN          CLOUDY    59  51  72 E5        29.73R TC  15
CUMBERLAND     CLOUDY    61  52  72 E6        29.75R TC  16
RICE LAKE      CLOUDY    60  50  69 E3        29.75R TC  16
CHETEK         CLOUDY    60  52  75 SE5       29.75R TC  16
LADYSMITH      CLOUDY    59  49  70 SE5       29.77R TC  15
EAU CLAIRE     NOT AVBL
MENOMONIE      CLOUDY    60  52  73 E5        29.73R TC  16
NEW RICHMOND   CLOUDY    59  51  76 NE3       29.71R TC  15
OSCEOLA        CLOUDY    60  54  81 NE5       29.74S TC  16
$$

WIZ003>005-009-010-017-018-261500-
NORTH CENTRAL WISCONSIN

CITY           SKY/WX    TMP DP  RH WIND       PRES   REMARKS
MANITOWISH WTR CLOUDY    60  51  72 SE5       29.80R TC  16
ARBOR VITAE    CLOUDY    60  50  68 S6        29.81R TC  16
WOODRUFF       CLOUDY    60  50  68 S6        29.81R TC  16
RHINELANDER    CLOUDY    61  49  64 SE7       29.81S TC  16
EAGLE RIVER    CLOUDY    61  48  62 S6        29.82R TC  16
LAND O LAKES   CLOUDY    63  49  58 S5        29.83S TC  17
PHILLIPS       CLOUDY    60  49  68 SE6       29.77S TC  15
TOMAHAWK       CLOUDY    59  49  70 E3        29.80S TC  15
MEDFORD        CLOUDY    56  48  75 E6        29.76S TC  13
MERRILL        CLOUDY    56  53  89 E5        29.78S TC  14
$$

WIZ029-030-035-036-043>047-261500-
CENTRAL WISCONSIN

CITY           SKY/WX    TMP DP  RH WIND       PRES   REMARKS
WAUSAU         CLOUDY    59  50  72 NE7       29.75F TC  15
MOSINEE        CLOUDY    57  50  77 E7        29.75F TC  14
MARSHFIELD     CLOUDY    58  47  66 E7        29.73F TC  14
STEVENS POINT  CLOUDY    60  50  70 E6        29.76F TC  16
WAUPACA        CLOUDY    61  50  66 E6        29.78S TC  16
WAUTOMA        CLOUDY    60  41  49 SE9       29.75F TC  16
WISC RAPIDS    CLOUDY    60  45  57 E7        29.74F TC  16
CAMP DOUGLAS   NOT AVBL
$$

WIZ011>013-019>022-031-037>040-048>050-261500-
NORTHEAST WISCONSIN

CITY           SKY/WX    TMP DP  RH WIND       PRES   REMARKS
ANTIGO         CLOUDY    57  50  75 E8        29.81S TC  14
SHAWANO        CLOUDY    64  43  47 SE6       29.79F TC  18
OCONTO         CLOUDY    60  41  50 SE8       29.81F TC  15
STURGEON BAY   CLOUDY    58  48  69 SE9       29.83F TC  14
GREEN BAY      CLOUDY    60  47  61 E10       29.79F TC  16
MANITOWOC      CLOUDY    56  49  77 E9        29.80F TC  13
APPLETON       PTSUNNY   61  46  59 SE7       29.79S TC  16
CLINTONVILLE   CLOUDY    60  47  63 SE6       29.80S TC  15
OSHKOSH        CLOUDY    60  44  55 S6        29.77R TC  16
$$

WIZ032>034-041-042-053>061-261500-
SOUTHWEST WISCONSIN

CITY           SKY/WX    TMP DP  RH WIND       PRES   REMARKS
LA CROSSE      LGT RAIN  57  51  80 E3        29.66F TC  14
SPARTA         LGT RAIN  57  52  83 CALM      29.66F TC  14
VIROQUA        NOT AVBL
BOSCOBEL       LGT RAIN  56  52  86 NE6       29.62F TC  13
PRAIRIE DU CHI RAIN      55  51  87 E5        29.63F TC  13
PLATTEVILLE    CLOUDY    55  54  97 E17G24    29.62F TC  13
$$

WIZ056-057-062-063-064-067-068-261500-
SOUTH CENTRAL WISCONSIN

CITY           SKY/WX    TMP DP  RH WIND       PRES   REMARKS
REEDSBURG      CLOUDY    59  40  49 SE7       29.72S TC  15
BARABOO/DELLS  CLOUDY    62  40  45 SE12      29.72F TC  17
LONE ROCK      NOT AVBL
MINERAL POINT  CLOUDY    52  50  93 E12G18    29.67F TC  11
MADISON        LGT RAIN  57  44  62 E7        29.70F TC  14
MIDDLETON      CLOUDY    55  52  89 SE6       29.71F TC  13
WATERTOWN      CLOUDY    57  48  73 E5        29.75F TC  14
MONROE         DRIZZLE   54  54 100 E13G20    29.67F TC  12
JANESVILLE     LGT RAIN  55  52  88 SE12      29.68F TC  13
$$

WIZ051-052-058>065-066-070>072-261500-
SOUTHEAST WISCONSIN

CITY           SKY/WX    TMP DP  RH WIND       PRES   REMARKS
MILWAUKEE      CLOUDY    59  51  75 SE6       29.78R TC  15
WAUKESHA       SUNNY     57  45  62 E9        29.78S TC  14
MILWAUKEE/TIMM SUNNY     57  48  72 SE3       29.80S TC  14
RACINE         CLOUDY    60  50  69 S9        29.79R TC  16
KENOSHA        CLOUDY    62  50  64 E7        29.76F TC  17
FOND DU LAC    CLOUDY    59  44  57 SE9       29.78R TC  15
SHEBOYGAN      CLOUDY    58  49  72 E8        29.78F TC  14
WEST BEND      CLOUDY    55  46  71 E7        29.78F TC  13
JUNEAU         CLOUDY    56  40  55 SE8       29.79F TC  14
$$

LSZ147-162-261500-
LAKE SUPERIOR

STATION/POSITION TIME  TEMP    WIND        PRES    WAVE
                       AIR SEA DIR/SP/G            HT/PER
                 (UTC) (F)     (DEG/KT/KT) (MB)    (FT/S)
W MID LAKE BUOY  1340   40 38   50/  6/  6 1009.2F
DEVILS ISLAND    1300   54      70/  9/ 10 1008.1F
PORT WING        1340   48      50/  4/  5 1007.8R
SAXON HARBOR     1340   56        CALM     1008.1S
$$

LMZ867-665-643>646-261500-
LAKE MICHIGAN

STATION/POSITION TIME  TEMP    WIND        PRES    WAVE
                       AIR SEA DIR/SP/G            HT/PER
                 (UTC) (F)     (DEG/KT/KT) (MB)    (FT/S)
CHAMBERS ISLAND  1340   59      90/  4/  9   N/A
N MID LAKE BUOY  1340   50 46  120/  6/  6 1012.0R
KEWAUNEE LAKESHO 1330           60/  2/  4 1009.3S
SHEBOYGAN LAKESH 1300   54     130/  3/  5 1009.4F
PORT WASHINGTON  1330   57        CALM     1009.8F
ATWATER BUOY     1300   54 53  150/  6/  8 1008.7    1
MILWAUKEE LAKESH 1340   57     160/  4/  4   N/A
S MID LAKE BUOY  1340   56     100/ 14/ 16 1008.2F
KENOSHA   LAKESH 1300   56     150/  3/  5 1008.5
$$

TC  - TEMPERATURE IN CELSIUS
VSB - VISIBILITY IN STATUTE MILES
WCI - WIND CHILL INDEX
HX  - HEAT INDEX